FW5884 Weather Reports


time (UTC)temp
C
wind
direction
speed
KPH
gust
KPH
rain 1hr
cm
rain 24hr
cm
rain mn
cm
humidity
%
barometer
mb
20260906073554 28 143 1.6 12.9 0.00 0.00 0.00 49 1021.8
20260906073055 28 88 0.0 3.2 0.00 0.00 0.00 50 1021.8
20260906072553 28 143 0.0 6.4 0.00 0.00 0.00 50 1021.8
20260906072052 28 172 0.0 6.4 0.00 0.00 0.00 49 1021.8
20260906071554 28 151 0.0 4.8 0.00 0.00 0.00 50 1021.7
20260906071053 28 69 0.0 4.8 0.00 0.00 0.00 47 1021.7
20260906070552 28 115 0.0 0.0 0.00 0.00 0.00 50 1021.7
20260906070056 28 129 0.0 0.0 0.00 0.00 0.00 51 1021.8
20260906065549 27 136 0.0 1.6 0.00 0.00 0.00 52 1021.7
20260906065047 27 143 0.0 1.6 0.00 0.00 0.00 51 1021.6
20260906064552 27 262 0.0 0.0 0.00 0.00 0.00 54 1021.6
20260906064047 27 262 0.0 0.0 0.00 0.00 0.00 54 1021.6
20260906063546 27 131 0.0 1.6 0.00 0.00 0.00 52 1021.6
20260906063046 27 114 0.0 1.6 0.00 0.00 0.00 54 1021.6
20260906062545 26 145 0.0 1.6 0.00 0.00 0.00 54 1021.6
20260906062043 26 59 0.0 1.6 0.00 0.00 0.00 54 1021.6
20260906061543 26 302 0.0 1.6 0.00 0.00 0.00 54 1021.6
20260906061042 26 135 0.0 0.0 0.00 0.00 0.00 53 1021.5
20260906060542 26 135 0.0 0.0 0.00 0.00 0.00 53 1021.6
20260906060040 26 135 0.0 0.0 0.00 0.00 0.00 57 1021.5
20260906055539 25 136 0.0 0.0 0.00 0.00 0.00 59 1021.4
20260906055040 26 136 0.0 0.0 0.00 0.00 0.00 57 1021.4
20260906054555 25 135 0.0 0.0 0.00 0.00 0.00 61 1021.3
20260906054037 25 136 0.0 0.0 0.00 0.00 0.00 64 1021.3
20260906053536 25 136 0.0 0.0 0.00 0.00 0.00 62 1021.3
20260906053034 23 136 0.0 0.0 0.00 0.00 0.00 64 1021.2
20260906052534 23 136 0.0 0.0 0.00 0.00 0.00 63 1021.2
20260906052033 22 136 0.0 0.0 0.00 0.00 0.00 66 1021.1
20260906051542 22 136 0.0 0.0 0.00 0.00 0.00 66 1021.1
20260906051033 21 136 0.0 1.6 0.00 0.00 0.00 67 1021.0
20260906050532 21 136 0.0 1.6 0.00 0.00 0.00 67 1021.1
20260906050035 21 84 0.0 0.0 0.00 0.00 0.00 68 1021.0
20260906045530 21 84 0.0 0.0 0.00 0.00 0.00 69 1021.0
20260906045030 21 84 0.0 0.0 0.00 0.00 0.00 68 1021.0
20260906044532 21 84 0.0 0.0 0.00 0.00 0.00 67 1020.9
20260906044028 22 84 0.0 0.0 0.00 0.00 0.00 66 1021.0
20260906043528 22 84 0.0 0.0 0.00 0.00 0.00 65 1020.9
20260906043030 22 84 0.0 0.0 0.00 0.00 0.00 65 1020.8
20260906042528 22 84 0.0 0.0 0.00 0.00 0.00 64 1020.8
20260906042027 22 84 0.0 0.0 0.00 0.00 0.00 64 1020.9
20260906041530 22 119 0.0 0.0 0.00 0.00 0.00 64 1020.8
20260906041029 22 302 0.0 0.0 0.00 0.00 0.00 64 1020.7
20260906040526 22 302 0.0 0.0 0.00 0.00 0.00 63 1020.7
20260906040049 22 302 0.0 0.0 0.00 0.00 0.00 63 1020.7
20260906035525 22 302 0.0 1.6 0.00 0.00 0.00 63 1020.7
20260906035028 22 302 0.0 1.6 0.00 0.00 0.00 63 1020.5
20260906034525 22 245 0.0 3.2 0.00 0.00 0.00 63 1020.6
20260906034024 22 245 0.0 3.2 0.00 0.00 0.00 63 1020.5
20260906033523 22 70 0.0 1.6 0.00 0.00 0.00 63 1020.4
20260906033038 22 77 0.0 0.0 0.00 0.00 0.00 63 1020.4
20260906032527 22 80 0.0 1.6 0.00 0.00 0.00 63 1020.3
20260906032024 22 80 0.0 3.2 0.00 0.00 0.00 63 1020.4
20260906031522 22 136 0.0 0.0 0.00 0.00 0.00 64 1020.3
20260906031024 22 152 0.0 0.0 0.00 0.00 0.00 64 1020.4
20260906030523 22 200 0.0 1.6 0.00 0.00 0.00 64 1020.3
20260906030021 22 153 0.0 1.6 0.00 0.00 0.00 64 1020.3
20260906025522 22 168 0.0 1.6 0.00 0.00 0.00 65 1020.2
20260906025022 22 117 0.0 0.0 0.00 0.00 0.00 66 1020.3
20260906024520 22 122 0.0 1.6 0.00 0.00 0.00 67 1020.2
20260906024022 22 121 0.0 0.0 0.00 0.00 0.00 68 1020.1
20260906023521 22 121 0.0 1.6 0.00 0.00 0.00 68 1020.2
20260906023019 22 122 0.0 1.6 0.00 0.00 0.00 67 1020.1
20260906022518 22 134 0.0 0.0 0.00 0.00 0.00 68 1020.1
20260906022018 22 134 0.0 0.0 0.00 0.00 0.00 67 1020.0
20260906021518 22 134 0.0 0.0 0.00 0.00 0.00 66 1020.1
20260906021016 22 134 0.0 1.6 0.00 0.00 0.00 66 1020.1
20260906020517 22 134 0.0 1.6 0.00 0.00 0.00 66 1020.0
20260906020016 22 134 0.0 0.0 0.00 0.00 0.00 66 1020.0
20260906015516 22 134 0.0 0.0 0.00 0.00 0.00 67 1020.0
20260906015015 22 134 0.0 0.0 0.00 0.00 0.00 66 1020.0
20260906014515 22 134 0.0 0.0 0.00 0.00 0.00 67 1019.9
20260906014016 22 129 0.0 0.0 0.00 0.00 0.00 67 1019.9
20260906013513 22 129 0.0 0.0 0.00 0.00 0.00 67 1020.0
20260906013013 22 129 0.0 0.0 0.00 0.00 0.00 67 1020.0
20260906012515 22 265 0.0 0.0 0.00 0.00 0.00 65 1020.0
20260906012012 22 266 0.0 0.0 0.00 0.00 0.00 66 1020.0
20260906011515 22 266 0.0 0.0 0.00 0.00 0.00 66 1020.0
20260906011011 23 266 0.0 1.6 0.00 0.00 0.00 66 1019.9
20260906010511 22 266 0.0 1.6 0.00 0.00 0.00 66 1019.9
20260906010016 22 266 0.0 0.0 0.00 0.00 0.00 66 1019.8
20260906005512 23 266 0.0 0.0 0.00 0.00 0.00 65 1019.8
20260906005009 23 266 0.0 1.6 0.00 0.00 0.00 65 1019.8
20260906004509 23 266 0.0 0.0 0.00 0.00 0.00 65 1019.9
20260906004012 23 266 0.0 0.0 0.00 0.00 0.00 64 1019.8
20260906003508 23 266 0.0 0.0 0.00 0.00 0.00 64 1019.8
20260906003008 23 266 0.0 1.6 0.00 0.00 0.00 64 1019.9
20260906002507 23 266 0.0 1.6 0.00 0.00 0.00 65 1019.8
20260906002008 23 266 0.0 0.0 0.00 0.00 0.00 64 1019.8
20260906001508 23 266 0.0 0.0 0.00 0.00 0.00 64 1019.8
20260906001007 23 266 0.0 1.6 0.00 0.00 0.00 63 1019.8
20260906000507 23 266 0.0 1.6 0.00 0.00 0.00 62 1019.8
20260906000007 23 313 0.0 0.0 0.00 0.00 0.00 62 1019.8
20260905235507 23 312 0.0 0.0 0.00 0.00 0.00 63 1019.7
20260905235006 23 312 0.0 0.0 0.00 0.00 0.00 63 1019.6
20260905234506 23 312 0.0 0.0 0.00 0.00 0.00 63 1019.6
20260905234004 23 312 0.0 0.0 0.00 0.00 0.00 63 1019.6
20260905233504 23 312 0.0 0.0 0.00 0.00 0.00 63 1019.5
20260905233003 23 313 0.0 1.6 0.00 0.00 0.00 63 1019.5
20260905232502 23 315 0.0 1.6 0.00 0.00 0.00 64 1019.5
20260905232002 23 337 0.0 0.0 0.00 0.00 0.00 64 1019.5
20260905231502 23 353 0.0 0.0 0.00 0.00 0.00 64 1019.5
20260905231001 23 354 0.0 0.0 0.00 0.00 0.00 64 1019.4
20260905230600 23 354 0.0 0.0 0.00 0.00 0.00 64 1019.4
20260905230106 23 355 0.0 1.6 0.00 0.00 0.00 64 1019.4
20260905225558 23 355 0.0 1.6 0.00 0.00 0.00 65 1019.3
20260905225058 23 354 0.0 1.6 0.00 0.00 0.00 65 1019.4
20260905224615 23 11 0.0 1.6 0.00 0.00 0.00 66 1019.2
20260905224056 23 77 0.0 1.6 0.00 0.00 0.00 67 1019.2
20260905223556 23 77 0.0 1.6 0.00 0.00 0.00 67 1019.2
20260905223106 22 135 0.0 0.0 0.00 0.00 0.00 68 1019.2
20260905222556 22 135 0.0 0.0 0.00 0.00 0.00 68 1019.2
20260905222054 22 135 0.0 1.6 0.00 0.00 0.00 69 1019.1
20260905221558 22 136 0.0 1.6 0.00 0.00 0.00 69 1019.2
20260905221054 22 135 0.0 0.0 0.00 0.00 0.00 69 1019.2
20260905220556 23 135 0.0 0.0 0.00 0.00 0.00 69 1019.1
20260905215553 23 135 0.0 0.0 0.00 0.00 0.00 69 1019.1
20260905215055 23 135 0.0 0.0 0.00 0.00 0.00 69 1019.0
20260905214552 23 135 0.0 0.0 0.00 0.00 0.00 69 1019.1
20260905214051 23 135 0.0 1.6 0.00 0.00 0.00 69 1019.1
20260905213551 23 135 0.0 0.0 0.00 0.00 0.00 68 1019.2
20260905213057 23 135 0.0 0.0 0.00 0.00 0.00 68 1019.1
20260905212551 23 135 0.0 0.0 0.00 0.00 0.00 67 1019.2
20260905212050 24 135 0.0 0.0 0.00 0.00 0.00 66 1019.2
20260905211550 23 135 0.0 0.0 0.00 0.00 0.00 66 1019.2
20260905211050 23 135 0.0 0.0 0.00 0.00 0.00 67 1019.1
20260905210550 23 135 0.0 0.0 0.00 0.00 0.00 66 1019.0
20260905210059 23 135 0.0 0.0 0.00 0.00 0.00 66 1019.0
20260905205548 23 135 0.0 0.0 0.00 0.00 0.00 66 1019.0
20260905205048 23 135 0.0 0.0 0.00 0.00 0.00 66 1019.0
20260905204548 23 135 0.0 0.0 0.00 0.00 0.00 65 1019.0
20260905204048 24 135 0.0 0.0 0.00 0.00 0.00 66 1019.0
20260905203547 24 135 0.0 0.0 0.00 0.00 0.00 65 1019.0
20260905203048 24 135 0.0 0.0 0.00 0.00 0.00 65 1018.9
20260905202545 24 135 0.0 0.0 0.00 0.00 0.00 64 1018.8
20260905202045 25 135 0.0 0.0 0.00 0.00 0.00 64 1018.9
20260905201547 25 135 0.0 0.0 0.00 0.00 0.00 64 1018.8
20260905201044 25 135 0.0 1.6 0.00 0.00 0.00 62 1018.8
20260905200544 25 135 0.0 1.6 0.00 0.00 0.00 62 1018.7
20260905200044 25 135 0.0 0.0 0.00 0.00 0.00 62 1018.6
20260905195547 25 135 0.0 0.0 0.00 0.00 0.00 61 1018.6
20260905195042 25 135 0.0 0.0 0.00 0.00 0.00 61 1018.5
20260905194547 26 135 0.0 0.0 0.00 0.00 0.00 61 1018.3
20260905194042 26 135 0.0 0.0 0.00 0.00 0.00 61 1018.4
20260905193541 26 135 0.0 0.0 0.00 0.00 0.00 60 1018.4
20260905193041 26 135 0.0 1.6 0.00 0.00 0.00 59 1018.4
20260905192540 26 124 0.0 1.6 0.00 0.00 0.00 59 1018.3
20260905192041 26 121 0.0 1.6 0.00 0.00 0.00 59 1018.2
20260905191539 26 120 0.0 1.6 0.00 0.00 0.00 60 1018.1
20260905191039 26 120 0.0 1.6 0.00 0.00 0.00 59 1018.1
20260905190539 26 81 0.0 1.6 0.00 0.00 0.00 59 1018.1
20260905190039 26 94 0.0 0.0 0.00 0.00 0.00 59 1018.0
20260905185537 26 94 0.0 0.0 0.00 0.00 0.00 59 1017.9
20260905185036 26 89 0.0 0.0 0.00 0.00 0.00 59 1017.8
20260905184547 26 89 0.0 0.0 0.00 0.00 0.00 58 1017.8
20260905184035 26 89 0.0 0.0 0.00 0.00 0.00 58 1017.7
20260905183534 26 89 0.0 0.0 0.00 0.00 0.00 58 1017.5
20260905183034 26 89 0.0 0.0 0.00 0.00 0.00 58 1017.4
20260905182533 27 86 0.0 1.6 0.00 0.00 0.00 57 1017.4
20260905182033 27 86 0.0 0.0 0.00 0.00 0.00 56 1017.4
20260905181532 27 86 0.0 1.6 0.00 0.00 0.00 55 1017.3
20260905181032 27 83 0.0 8.0 0.00 0.00 0.00 55 1017.3
20260905180530 27 79 0.0 8.0 0.00 0.00 0.00 55 1017.3
20260905180037 27 128 0.0 6.4 0.00 0.00 0.00 55 1017.2
20260905175529 27 82 0.0 6.4 0.00 0.00 0.00 55 1017.0
20260905175029 27 134 0.0 4.8 0.00 0.00 0.00 55 1017.0
20260905174529 27 148 0.0 4.8 0.00 0.00 0.00 54 1016.8
20260905174029 27 85 0.0 14.5 0.00 0.00 0.00 54 1016.7
20260905173529 28 141 0.0 19.3 0.00 0.00 0.00 54 1016.7
20260905173032 28 146 0.0 19.3 0.00 0.00 0.00 54 1016.6
20260905172529 28 94 0.0 6.4 0.00 0.00 0.00 55 1016.6
20260905172028 28 176 0.0 11.3 0.00 0.00 0.00 54 1016.6
20260905171530 28 134 1.6 11.3 0.00 0.00 0.00 53 1016.4
20260905171028 29 98 1.6 9.7 0.00 0.00 0.00 53 1016.5
20260905170528 29 119 1.6 8.0 0.00 0.00 0.00 53 1016.4
20260905170028 30 132 0.0 4.8 0.00 0.00 0.00 53 1016.4
20260905165526 30 290 0.0 0.0 0.00 0.00 0.00 54 1016.5
20260905165028 30 150 0.0 1.6 0.00 0.00 0.00 55 1016.3
20260905164530 30 150 0.0 1.6 0.00 0.00 0.00 56 1016.2
20260905164025 30 142 0.0 0.0 0.00 0.00 0.00 56 1016.0
20260905163528 30 171 0.0 1.6 0.00 0.00 0.00 55 1016.0
20260905163027 30 172 0.0 1.6 0.00 0.00 0.00 54 1015.8
20260905162528 30 143 0.0 1.6 0.00 0.00 0.00 53 1015.7
20260905162025 31 145 0.0 1.6 0.00 0.00 0.00 53 1015.7
20260905161524 31 122 0.0 1.6 0.00 0.00 0.00 51 1015.8
20260905161024 31 141 0.0 1.6 0.00 0.00 0.00 51 1015.7
20260905160524 31 141 0.0 1.6 0.00 0.00 0.00 51 1015.7
20260905160024 31 77 0.0 1.6 0.00 0.00 0.00 50 1015.7
20260905155526 31 140 0.0 3.2 0.00 0.00 0.00 50 1015.6
20260905155023 32 145 0.0 0.0 0.00 0.00 0.00 50 1015.5
20260905154522 32 143 0.0 0.0 0.00 0.00 0.00 49 1015.6
20260905154032 32 153 0.0 3.2 0.00 0.00 0.00 49 1015.6
20260905153523 32 113 0.0 3.2 0.00 0.00 0.00 49 1015.6
20260905153022 32 113 0.0 1.6 0.00 0.00 0.00 48 1015.7
20260905152525 32 173 0.0 4.8 0.00 0.00 0.00 48 1015.7
20260905152022 33 124 0.0 4.8 0.00 0.00 0.00 46 1015.7
20260905151522 33 110 0.0 3.2 0.00 0.00 0.00 48 1015.7
20260905151022 33 131 0.0 3.2 0.00 0.00 0.00 47 1015.6
20260905150527 33 105 0.0 4.8 0.00 0.00 0.00 49 1015.6
20260905150021 33 149 0.0 6.4 0.00 0.00 0.00 49 1015.5
20260905145520 32 214 0.0 6.4 0.00 0.00 0.00 50 1015.5
20260905145021 33 79 0.0 1.6 0.00 0.00 0.00 51 1015.4
20260905144524 33 127 0.0 4.8 0.00 0.00 0.00 51 1015.4
20260905144020 33 94 0.0 6.4 0.00 0.00 0.00 52 1015.4
20260905143519 33 143 0.0 6.4 0.00 0.00 0.00 54 1015.4
20260905143020 33 134 0.0 1.6 0.00 0.00 0.00 53 1015.4
20260905142519 33 157 0.0 1.6 0.00 0.00 0.00 51 1015.4
20260905142019 33 65 0.0 4.8 0.00 0.00 0.00 50 1015.4
20260905141519 33 139 0.0 4.8 0.00 0.00 0.00 54 1015.4
20260905141019 33 75 0.0 1.6 0.00 0.00 0.00 50 1015.5
20260905140520 33 16 0.0 6.4 0.00 0.00 0.00 49 1015.5
20260905140017 33 310 0.0 6.4 0.00 0.00 0.00 48 1015.6
20260905135515 32 328 0.0 1.6 0.00 0.00 0.00 50 1015.6
20260905135015 32 100 0.0 1.6 0.00 0.00 0.00 49 1015.6
20260905134518 32 113 0.0 3.2 0.00 0.00 0.00 50 1015.6
20260905134014 32 311 0.0 3.2 0.00 0.00 0.00 47 1015.7
20260905133515 32 266 0.0 3.2 0.00 0.00 0.00 48 1015.6
20260905133022 32 289 0.0 6.4 0.00 0.00 0.00 48 1015.6
20260905132514 32 297 0.0 6.4 0.00 0.00 0.00 47 1015.6
20260905132014 32 198 0.0 4.8 0.00 0.00 0.00 47 1015.6
20260905131522 32 131 0.0 4.8 0.00 0.00 0.00 47 1015.6
20260905131013 32 130 0.0 9.7 0.00 0.00 0.00 47 1015.6
20260905130513 32 120 0.0 9.7 0.00 0.00 0.00 46 1015.6
20260905130011 32 120 0.0 1.6 0.00 0.00 0.00 46 1015.8
20260905125508 32 141 0.0 1.6 0.00 0.00 0.00 47 1015.8
20260905125008 32 146 0.0 1.6 0.00 0.00 0.00 46 1015.9
20260905124508 32 23 0.0 1.6 0.00 0.00 0.00 45 1016.0
20260905124007 32 127 0.0 3.2 0.00 0.00 0.00 46 1016.1
20260905123508 32 296 0.0 4.8 0.00 0.00 0.00 46 1016.1
20260905123007 32 356 0.0 4.8 0.00 0.00 0.00 45 1016.1
20260905122507 32 254 0.0 1.6 0.00 0.00 0.00 46 1016.3
20260905122009 32 127 0.0 1.6 0.00 0.00 0.00 46 1016.2
20260905121506 32 140 0.0 4.8 0.00 0.00 0.00 45 1016.2
20260905121007 32 254 0.0 6.4 0.00 0.00 0.00 44 1016.1
20260905120510 32 27 0.0 6.4 0.00 0.00 0.00 45 1016.2
20260905120006 32 97 0.0 1.6 0.00 0.00 0.00 46 1016.3
20260905115505 31 288 0.0 1.6 0.00 0.00 0.00 43 1016.3
20260905115007 31 328 0.0 3.2 0.00 0.00 0.00 45 1016.3
20260905114505 31 22 0.0 0.0 0.00 0.00 0.00 43 1016.4
20260905114005 32 61 0.0 1.6 0.00 0.00 0.00 43 1016.3
20260905113505 32 125 0.0 1.6 0.00 0.00 0.00 45 1016.3
20260905113004 31 187 0.0 1.6 0.00 0.00 0.00 44 1016.3
20260905112503 31 135 0.0 1.6 0.00 0.00 0.00 46 1016.4
20260905112002 31 131 0.0 6.4 0.00 0.00 0.00 44 1016.4
20260905111505 31 312 0.0 4.8 0.00 0.00 0.00 43 1016.4
20260905111001 31 354 0.0 4.8 0.00 0.00 0.00 44 1016.4
20260905110559 31 356 0.0 3.2 0.00 0.00 0.00 44 1016.4
20260905110100 30 313 0.0 4.8 0.00 0.00 0.00 45 1016.3
20260905105558 30 342 0.0 4.8 0.00 0.00 0.00 45 1016.4
20260905105101 30 289 0.0 6.4 0.00 0.00 0.00 48 1016.5
20260905104556 30 315 0.0 6.4 0.00 0.00 0.00 46 1016.5
20260905104055 30 285 0.0 4.8 0.00 0.00 0.00 48 1016.4
20260905103554 30 40 0.0 4.8 0.00 0.00 0.00 48 1016.4
20260905103058 30 342 0.0 1.6 0.00 0.00 0.00 49 1016.5
20260905102554 29 339 0.0 1.6 0.00 0.00 0.00 50 1016.5
20260905102054 29 339 0.0 1.6 0.00 0.00 0.00 48 1016.5
20260905101602 29 337 0.0 1.6 0.00 0.00 0.00 49 1016.5
20260905101053 29 314 0.0 1.6 0.00 0.00 0.00 49 1016.6
20260905100554 29 349 0.0 1.6 0.00 0.00 0.00 50 1016.6
20260905100120 30 12 0.0 1.6 0.00 0.00 0.00 51 1016.7
20260905095552 30 27 0.0 1.6 0.00 0.00 0.00 48 1016.6
20260905095053 30 67 0.0 1.6 0.00 0.00 0.00 47 1016.6
20260905094553 30 321 0.0 0.0 0.00 0.00 0.00 45 1016.6
20260905094053 30 154 0.0 1.6 0.00 0.00 0.00 50 1016.5
20260905093551 30 129 0.0 1.6 0.00 0.00 0.00 47 1016.5
20260905093050 30 134 0.0 1.6 0.00 0.00 0.00 49 1016.5
20260905092549 29 134 0.0 1.6 0.00 0.00 0.00 46 1016.6
20260905092049 29 134 0.0 0.0 0.00 0.00 0.00 49 1016.6
20260905091557 29 134 0.0 1.6 0.00 0.00 0.00 48 1016.6
20260905091050 29 134 0.0 1.6 0.00 0.00 0.00 51 1016.4
20260905090551 29 133 0.0 1.6 0.00 0.00 0.00 52 1016.5
20260905090048 29 134 0.0 1.6 0.00 0.00 0.00 50 1016.6
20260905085547 29 134 0.0 1.6 0.00 0.00 0.00 51 1016.4
20260905085047 29 79 0.0 1.6 0.00 0.00 0.00 50 1016.5
20260905084551 29 100 0.0 1.6 0.00 0.00 0.00 53 1016.5
20260905084047 28 143 0.0 1.6 0.00 0.00 0.00 49 1016.4
20260905083547 29 94 0.0 1.6 0.00 0.00 0.00 50 1016.5
20260905083105 29 218 0.0 1.6 0.00 0.00 0.00 51 1016.4
20260905082547 29 153 0.0 1.6 0.00 0.00 0.00 51 1016.4
20260905082046 29 86 0.0 1.6 0.00 0.00 0.00 52 1016.4
20260905081545 28 135 0.0 0.0 0.00 0.00 0.00 53 1016.3
20260905081043 28 150 0.0 0.0 0.00 0.00 0.00 55 1016.2
20260905080543 28 150 0.0 0.0 0.00 0.00 0.00 54 1016.2
20260905080043 28 126 0.0 1.6 0.00 0.00 0.00 54 1016.2
20260905075541 28 131 0.0 1.6 0.00 0.00 0.00 57 1016.2
20260905075040 27 147 0.0 0.0 0.00 0.00 0.00 56 1016.3
20260905074538 27 155 0.0 1.6 0.00 0.00 0.00 58 1016.3
20260905074037 26 216 0.0 1.6 0.00 0.00 0.00 59 1016.2